Wetterdaten: aktuell Donnerstag, 22.08.2019 23:30
Datum Zeit Temp. I. Temp. A. Temp. 2 Feuchte I. Feuchte A. Luftdruck Regen Wind Richtung Richtung Taupunkt Windben
22.08.2019 23:30 24,5 C 17,9 C 22,0 C 58 % 62 % 1027,2 hPa 0,0 l/m 0,0 km/h N 360 13,0 C 0,0 km/h
22.08.2019 23:25 24,5 C 17,9 C 22,0 C 58 % 62 % 1027,2 hPa 0,0 l/m 0,0 km/h N 360 12,8 C 0,0 km/h
22.08.2019 23:20 24,5 C 18,0 C 22,0 C 57 % 62 % 1027,6 hPa 0,0 l/m 0,0 km/h N 360 12,9 C 0,0 km/h
22.08.2019 23:15 24,6 C 18,2 C 22,0 C 57 % 62 % 1027,6 hPa 0,0 l/m 0,0 km/h N 360 12,9 C 0,0 km/h
22.08.2019 23:10 24,8 C 18,3 C 22,0 C 57 % 63 % 1027,6 hPa 0,0 l/m 0,0 km/h N 360 12,9 C 0,0 km/h
22.08.2019 23:05 25,0 C 18,4 C 22,0 C 57 % 63 % 1027,6 hPa 0,0 l/m 0,0 km/h N 360 13,0 C 0,0 km/h
22.08.2019 23:00 25,2 C 18,5 C 22,0 C 59 % 63 % 1027,5 hPa 0,0 l/m 0,0 km/h N 360 13,1 C 0,0 km/h
22.08.2019 22:55 25,2 C 18,7 C 22,0 C 61 % 63 % 1027,5 hPa 0,0 l/m 0,0 km/h N 360 13,1 C 0,0 km/h
22.08.2019 22:50 25,1 C 18,9 C 22,0 C 60 % 64 % 1027,5 hPa 0,0 l/m 0,0 km/h N 360 13,3 C 0,0 km/h
22.08.2019 22:45 25,1 C 18,9 C 22,0 C 61 % 64 % 1027,5 hPa 0,0 l/m 0,0 km/h N 360 13,1 C 0,0 km/h
22.08.2019 22:40 25,1 C 19,1 C 22,0 C 61 % 64 % 1027,4 hPa 0,0 l/m 0,0 km/h N 360 13,1 C 0,0 km/h
22.08.2019 22:35 25,1 C 19,3 C 22,0 C 61 % 64 % 1027,4 hPa 0,0 l/m 0,0 km/h N 360 13,2 C 0,0 km/h
22.08.2019 22:30 25,0 C 19,3 C 22,0 C 61 % 64 % 1027,4 hPa 0,0 l/m 0,0 km/h N 360 13,2 C 0,0 km/h
22.08.2019 22:25 25,0 C 19,4 C 22,0 C 61 % 64 % 1027,4 hPa 0,0 l/m 0,0 km/h N 360 13,1 C 0,0 km/h
22.08.2019 22:20 25,0 C 19,6 C 22,0 C 60 % 65 % 1027,2 hPa 0,0 l/m 0,0 km/h N 360 13,3 C 0,0 km/h
22.08.2019 22:15 24,9 C 19,8 C 22,0 C 61 % 65 % 1027,2 hPa 0,0 l/m 0,0 km/h N 360 13,5 C 0,0 km/h
22.08.2019 22:10 24,8 C 20,0 C 22,0 C 60 % 66 % 1027,2 hPa 0,0 l/m 0,0 km/h N 360 13,4 C 0,0 km/h
22.08.2019 22:05 24,8 C 20,1 C 22,0 C 61 % 66 % 1027,2 hPa 0,0 l/m 0,0 km/h N 360 13,3 C 0,0 km/h
22.08.2019 22:00 24,8 C 20,3 C 22,0 C 60 % 66 % 1027,1 hPa 0,0 l/m 0,0 km/h N 360 13,5 C 0,0 km/h
22.08.2019 21:55 24,7 C 20,5 C 22,0 C 60 % 66 % 1027,1 hPa 0,0 l/m 0,0 km/h N 360 13,5 C 0,0 km/h
22.08.2019 21:50 24,6 C 20,7 C 22,0 C 60 % 67 % 1027,1 hPa 0,0 l/m 0,0 km/h N 360 13,4 C 0,0 km/h
22.08.2019 21:45 24,6 C 20,8 C 22,0 C 59 % 67 % 1027,1 hPa 0,0 l/m 0,0 km/h N 360 13,2 C 0,0 km/h
22.08.2019 21:40 24,7 C 21,1 C 22,0 C 60 % 67 % 1026,7 hPa 0,0 l/m 0,0 km/h N 360 13,5 C 0,0 km/h
22.08.2019 21:35 24,7 C 21,3 C 22,0 C 60 % 68 % 1026,7 hPa 0,0 l/m 0,0 km/h N 360 13,5 C 0,0 km/h
22.08.2019 21:30 24,6 C 21,3 C 22,0 C 60 % 68 % 1026,7 hPa 0,0 l/m 0,0 km/h N 360 13,2 C 0,0 km/h
22.08.2019 21:25 24,6 C 21,5 C 22,0 C 60 % 68 % 1026,7 hPa 0,0 l/m 0,0 km/h N 360 13,7 C 0,0 km/h
22.08.2019 21:20 24,6 C 21,8 C 22,0 C 60 % 69 % 1026,6 hPa 0,0 l/m 0,0 km/h N 360 13,7 C 0,0 km/h
22.08.2019 21:15 24,6 C 21,9 C 22,0 C 60 % 69 % 1026,6 hPa 0,0 l/m 0,0 km/h N 360 13,8 C 0,0 km/h
22.08.2019 21:10 24,6 C 22,1 C 22,0 C 60 % 69 % 1026,6 hPa 0,0 l/m 0,0 km/h N 360 13,7 C 0,0 km/h
22.08.2019 21:05 24,5 C 22,3 C 22,0 C 60 % 69 % 1026,6 hPa 0,0 l/m 0,0 km/h N 360 13,9 C 0,0 km/h
22.08.2019 21:00 24,5 C 22,6 C 22,0 C 60 % 70 % 1026,2 hPa 0,0 l/m 0,0 km/h N 360 13,6 C 0,0 km/h
22.08.2019 20:55 24,5 C 22,7 C 22,0 C 60 % 70 % 1026,2 hPa 0,0 l/m 0,0 km/h N 360 13,7 C 0,0 km/h
22.08.2019 20:50 24,5 C 22,9 C 22,0 C 60 % 71 % 1026,2 hPa 0,0 l/m 0,0 km/h N 360 13,6 C 0,0 km/h
22.08.2019 20:45 24,5 C 23,1 C 22,0 C 60 % 71 % 1026,2 hPa 0,0 l/m 0,0 km/h N 360 13,8 C 0,0 km/h
22.08.2019 20:40 24,5 C 23,5 C 22,0 C 60 % 72 % 1025,9 hPa 0,0 l/m 0,0 km/h N 360 13,6 C 0,0 km/h
22.08.2019 20:35 24,6 C 23,6 C 22,0 C 59 % 72 % 1025,9 hPa 0,0 l/m 0,0 km/h N 360 13,4 C 0,0 km/h
22.08.2019 20:30 24,6 C 23,9 C 22,0 C 59 % 72 % 1025,9 hPa 0,0 l/m 0,0 km/h N 360 13,7 C 0,0 km/h
22.08.2019 20:25 24,5 C 24,0 C 22,0 C 59 % 72 % 1025,9 hPa 0,0 l/m 0,0 km/h N 360 13,5 C 0,0 km/h
22.08.2019 20:20 24,6 C 24,2 C 22,0 C 60 % 73 % 1026,0 hPa 0,0 l/m 0,0 km/h N 360 13,7 C 0,0 km/h
22.08.2019 20:15 24,6 C 24,4 C 22,0 C 59 % 73 % 1026,0 hPa 0,0 l/m 0,0 km/h N 360 13,6 C 0,0 km/h
22.08.2019 20:10 24,6 C 24,7 C 22,0 C 59 % 74 % 1026,0 hPa 0,0 l/m 0,0 km/h N 360 12,9 C 0,0 km/h
22.08.2019 20:05 24,6 C 24,9 C 22,0 C 59 % 74 % 1026,0 hPa 0,0 l/m 0,0 km/h N 360 13,4 C 0,0 km/h
22.08.2019 20:00 24,6 C 25,1 C 22,1 C 59 % 74 % 1025,9 hPa 0,0 l/m 0,0 km/h N 360 13,0 C 0,0 km/h
22.08.2019 19:55 24,6 C 25,1 C 22,3 C 59 % 74 % 1025,9 hPa 0,0 l/m 0,0 km/h N 360 13,0 C 0,0 km/h
22.08.2019 19:50 24,6 C 25,2 C 22,2 C 59 % 74 % 1025,9 hPa 0,0 l/m 0,0 km/h N 360 13,1 C 0,0 km/h
22.08.2019 19:45 24,6 C 25,2 C 22,3 C 59 % 74 % 1025,9 hPa 0,0 l/m 0,0 km/h N 360 13,1 C 0,0 km/h
22.08.2019 19:40 24,6 C 25,3 C 22,4 C 59 % 75 % 1025,9 hPa 0,0 l/m 0,0 km/h N 360 13,5 C 0,0 km/h
22.08.2019 19:35 24,6 C 25,3 C 22,4 C 59 % 75 % 1025,9 hPa 0,0 l/m 0,0 km/h N 360 12,8 C 0,0 km/h
22.08.2019 19:30 24,6 C 25,3 C 22,6 C 59 % 75 % 1025,9 hPa 0,0 l/m 0,0 km/h N 360 12,8 C 0,0 km/h
22.08.2019 19:25 24,6 C 25,3 C 22,6 C 59 % 75 % 1025,9 hPa 0,0 l/m 0,0 km/h N 360 13,2 C 0,0 km/h
22.08.2019 19:20 24,6 C 25,2 C 22,6 C 59 % 74 % 1025,7 hPa 0,0 l/m 0,0 km/h N 360 13,1 C 0,0 km/h
22.08.2019 19:15 24,6 C 25,2 C 22,7 C 59 % 74 % 1025,7 hPa 0,0 l/m 0,0 km/h N 360 13,1 C 0,0 km/h
22.08.2019 19:10 24,6 C 25,2 C 22,6 C 59 % 74 % 1025,7 hPa 0,0 l/m 0,0 km/h N 360 13,1 C 0,0 km/h
22.08.2019 19:05 24,6 C 25,2 C 22,6 C 59 % 74 % 1025,7 hPa 0,0 l/m 0,0 km/h N 360 13,1 C 0,0 km/h
22.08.2019 19:00 24,6 C 25,2 C 22,6 C 59 % 74 % 1025,8 hPa 0,0 l/m 0,0 km/h N 360 13,1 C 0,0 km/h
22.08.2019 18:55 24,7 C 25,2 C 22,6 C 59 % 74 % 1025,8 hPa 0,0 l/m 0,0 km/h N 360 13,1 C 0,0 km/h
22.08.2019 18:50 24,7 C 25,3 C 22,5 C 59 % 75 % 1025,8 hPa 0,0 l/m 0,0 km/h N 360 13,2 C 0,0 km/h
22.08.2019 18:45 24,7 C 25,3 C 22,5 C 59 % 75 % 1025,8 hPa 0,0 l/m 0,0 km/h N 360 13,5 C 0,0 km/h
22.08.2019 18:40 24,8 C 25,3 C 22,6 C 59 % 75 % 1025,9 hPa 0,0 l/m 0,0 km/h N 360 12,8 C 0,0 km/h
22.08.2019 18:35 24,8 C 25,4 C 22,4 C 59 % 75 % 1025,9 hPa 0,0 l/m 0,0 km/h N 360 13,6 C 0,0 km/h
22.08.2019 18:30 24,8 C 25,5 C 22,6 C 59 % 75 % 1025,9 hPa 0,0 l/m 0,0 km/h N 360 14,0 C 0,0 km/h
22.08.2019 18:25 24,8 C 25,4 C 22,8 C 59 % 75 % 1025,9 hPa 0,0 l/m 0,0 km/h N 360 13,6 C 0,0 km/h
22.08.2019 18:20 24,8 C 25,5 C 22,8 C 59 % 75 % 1025,9 hPa 0,0 l/m 0,0 km/h N 360 13,7 C 0,0 km/h
22.08.2019 18:15 24,8 C 25,5 C 22,9 C 59 % 75 % 1025,9 hPa 0,0 l/m 0,0 km/h N 360 13,7 C 0,0 km/h
22.08.2019 18:10 24,8 C 25,6 C 22,8 C 59 % 75 % 1025,9 hPa 0,0 l/m 0,0 km/h N 360 13,8 C 0,0 km/h
22.08.2019 18:05 24,8 C 25,5 C 17,5 C 59 % 75 % 1025,9 hPa 0,0 l/m 0,0 km/h N 360 13,7 C 0,0 km/h
22.08.2019 18:00 24,8 C 25,5 C 17,5 C 58 % 75 % 1026,0 hPa 0,0 l/m 0,0 km/h N 360 14,0 C 0,0 km/h
22.08.2019 17:55 24,8 C 25,5 C 17,5 C 59 % 75 % 1026,0 hPa 0,0 l/m 0,0 km/h N 360 14,0 C 0,0 km/h
22.08.2019 17:50 24,8 C 25,5 C 17,5 C 58 % 75 % 1026,0 hPa 0,0 l/m 0,0 km/h N 360 13,7 C 0,0 km/h
22.08.2019 17:45 24,8 C 25,5 C 17,5 C 58 % 75 % 1026,0 hPa 0,0 l/m 0,0 km/h N 360 13,7 C 0,0 km/h
22.08.2019 17:40 24,8 C 25,5 C 17,5 C 58 % 75 % 1025,8 hPa 0,0 l/m 0,0 km/h N 360 13,7 C 0,0 km/h
22.08.2019 17:35 24,8 C 25,4 C 17,5 C 58 % 75 % 1025,8 hPa 0,0 l/m 0,0 km/h N 360 13,6 C 0,0 km/h
22.08.2019 17:30 24,7 C 25,5 C 17,5 C 58 % 75 % 1025,8 hPa 0,0 l/m 0,0 km/h N 360 14,0 C 0,0 km/h
22.08.2019 17:25 24,7 C 25,4 C 17,5 C 58 % 75 % 1025,8 hPa 0,0 l/m 0,0 km/h N 360 13,9 C 0,0 km/h
22.08.2019 17:20 24,7 C 25,3 C 17,5 C 58 % 75 % 1026,0 hPa 0,0 l/m 0,0 km/h N 360 13,5 C 0,0 km/h
22.08.2019 17:15 24,8 C 25,3 C 17,5 C 58 % 75 % 1026,0 hPa 0,0 l/m 0,0 km/h N 360 13,5 C 0,0 km/h
22.08.2019 17:10 24,7 C 25,3 C 17,5 C 58 % 75 % 1026,0 hPa 0,0 l/m 0,0 km/h N 360 13,5 C 0,0 km/h
22.08.2019 17:05 24,8 C 25,3 C 17,5 C 58 % 75 % 1026,0 hPa 0,0 l/m 0,0 km/h N 360 13,2 C 0,0 km/h
22.08.2019 17:00 24,7 C 25,3 C 17,5 C 58 % 75 % 1026,0 hPa 0,0 l/m 0,0 km/h N 360 13,5 C 0,0 km/h
22.08.2019 16:55 24,7 C 25,2 C 17,5 C 58 % 74 % 1026,0 hPa 0,0 l/m 0,0 km/h N 360 13,1 C 0,0 km/h
22.08.2019 16:50 24,6 C 25,2 C 17,5 C 58 % 74 % 1026,0 hPa 0,0 l/m 0,0 km/h N 360 13,1 C 0,0 km/h
22.08.2019 16:45 24,6 C 25,2 C 17,5 C 58 % 74 % 1026,0 hPa 0,0 l/m 0,0 km/h N 360 13,1 C 0,0 km/h
22.08.2019 16:40 24,6 C 25,2 C 17,5 C 58 % 74 % 1026,1 hPa 0,0 l/m 0,0 km/h N 360 13,4 C 0,0 km/h
22.08.2019 16:35 24,5 C 25,2 C 17,5 C 58 % 74 % 1026,1 hPa 0,0 l/m 0,0 km/h N 360 13,7 C 0,0 km/h
22.08.2019 16:30 24,5 C 25,1 C 17,5 C 58 % 74 % 1026,1 hPa 0,0 l/m 0,0 km/h N 360 13,6 C 0,0 km/h
22.08.2019 16:25 24,5 C 25,1 C 17,5 C 58 % 74 % 1026,1 hPa 0,0 l/m 0,0 km/h N 360 13,9 C 0,0 km/h
22.08.2019 16:20 24,4 C 25,0 C 17,5 C 58 % 74 % 1025,9 hPa 0,0 l/m 0,0 km/h N 360 13,2 C 0,0 km/h
22.08.2019 16:15 24,4 C 25,0 C 17,5 C 58 % 74 % 1025,9 hPa 0,0 l/m 0,0 km/h N 360 12,9 C 0,0 km/h
22.08.2019 16:10 24,4 C 24,9 C 17,5 C 58 % 74 % 1025,9 hPa 0,0 l/m 0,0 km/h N 360 13,7 C 0,0 km/h
22.08.2019 16:05 24,2 C 24,9 C 17,5 C 58 % 74 % 1025,9 hPa 0,0 l/m 0,0 km/h N 360 13,4 C 0,0 km/h
22.08.2019 16:00 24,2 C 24,9 C 17,5 C 58 % 74 % 1025,9 hPa 0,0 l/m 0,0 km/h N 360 13,4 C 0,0 km/h
22.08.2019 15:55 24,3 C 24,8 C 17,5 C 58 % 74 % 1025,9 hPa 0,0 l/m 0,0 km/h N 360 13,7 C 0,0 km/h
22.08.2019 15:50 24,2 C 24,8 C 17,5 C 58 % 74 % 1025,9 hPa 0,0 l/m 0,0 km/h N 360 13,0 C 0,0 km/h
22.08.2019 15:45 24,2 C 24,9 C 17,5 C 58 % 74 % 1025,9 hPa 0,0 l/m 0,0 km/h N 360 14,1 C 0,0 km/h
22.08.2019 15:40 24,1 C 24,7 C 17,5 C 58 % 74 % 1025,9 hPa 0,0 l/m 0,0 km/h N 360 14,2 C 0,0 km/h
22.08.2019 15:35 24,1 C 24,6 C 17,5 C 58 % 73 % 1025,9 hPa 0,0 l/m 0,0 km/h N 360 14,1 C 0,0 km/h
22.08.2019 15:30 24,1 C 24,5 C 17,5 C 58 % 73 % 1025,9 hPa 0,0 l/m 0,0 km/h N 360 13,7 C 0,0 km/h
22.08.2019 15:25 24,0 C 24,5 C 17,5 C 58 % 73 % 1025,9 hPa 0,0 l/m 0,0 km/h N 360 13,7 C 0,0 km/h
22.08.2019 15:20 24,0 C 24,5 C 17,5 C 58 % 73 % 1026,1 hPa 0,0 l/m 0,0 km/h N 360 14,0 C 0,0 km/h
22.08.2019 15:15 24,0 C 24,4 C 17,5 C 58 % 73 % 1026,1 hPa 0,0 l/m 0,0 km/h N 360 14,2 C 0,0 km/h
22.08.2019 15:10 23,9 C 24,2 C 17,5 C 58 % 73 % 1026,1 hPa 0,0 l/m 0,0 km/h N 360 13,4 C 0,0 km/h
22.08.2019 15:05 23,9 C 24,3 C 17,5 C 58 % 73 % 1026,1 hPa 0,0 l/m 0,0 km/h N 360 13,2 C 0,0 km/h
22.08.2019 15:00 23,8 C 24,1 C 17,5 C 58 % 73 % 1026,2 hPa 0,0 l/m 0,0 km/h N 360 13,3 C 0,0 km/h
22.08.2019 14:55 23,8 C 24,0 C 17,5 C 58 % 72 % 1026,2 hPa 0,0 l/m 0,0 km/h N 360 13,5 C 0,0 km/h
22.08.2019 14:50 23,8 C 23,9 C 17,5 C 58 % 72 % 1026,2 hPa 0,0 l/m 0,0 km/h N 360 13,7 C 0,0 km/h
22.08.2019 14:45 23,7 C 23,8 C 17,5 C 58 % 72 % 1026,2 hPa 0,0 l/m 0,0 km/h N 360 13,3 C 0,0 km/h
22.08.2019 14:40 23,7 C 23,8 C 17,5 C 58 % 72 % 1026,4 hPa 0,0 l/m 0,0 km/h N 360 13,0 C 0,0 km/h
22.08.2019 14:35 23,7 C 23,7 C 17,5 C 59 % 72 % 1026,4 hPa 0,0 l/m 0,0 km/h N 360 13,0 C 0,0 km/h
22.08.2019 14:30 23,6 C 23,6 C 17,5 C 59 % 72 % 1026,4 hPa 0,0 l/m 0,0 km/h N 360 13,2 C 0,0 km/h
22.08.2019 14:25 23,6 C 23,6 C 17,5 C 59 % 72 % 1026,4 hPa 0,0 l/m 0,0 km/h N 360 13,2 C 0,0 km/h
22.08.2019 14:20 23,6 C 23,5 C 17,5 C 59 % 72 % 1026,2 hPa 0,0 l/m 0,0 km/h N 360 13,4 C 0,0 km/h
22.08.2019 14:15 23,6 C 23,5 C 17,5 C 59 % 72 % 1026,2 hPa 0,0 l/m 0,0 km/h N 360 13,4 C 0,0 km/h
22.08.2019 14:10 23,6 C 23,4 C 17,5 C 59 % 71 % 1026,2 hPa 0,0 l/m 0,0 km/h N 360 13,6 C 0,0 km/h
22.08.2019 14:05 23,6 C 23,3 C 17,5 C 59 % 71 % 1026,2 hPa 0,0 l/m 0,0 km/h N 360 13,2 C 0,0 km/h
22.08.2019 14:00 23,6 C 23,3 C 17,5 C 59 % 71 % 1026,2 hPa 0,0 l/m 0,0 km/h N 360 13,2 C 0,0 km/h
22.08.2019 13:55 23,5 C 23,2 C 17,5 C 59 % 71 % 1026,2 hPa 0,0 l/m 0,0 km/h N 360 13,4 C 0,0 km/h
22.08.2019 13:52 23,5 C 23,2 C 17,5 C 59 % 71 % 1026,2 hPa 0,0 l/m 0,0 km/h N 360 13,4 C 0,0 km/h
22.08.2019 13:51 23,5 C 23,2 C 17,5 C 59 % 71 % 1026,2 hPa 0,0 l/m 0,0 km/h N 360 13,4 C 0,0 km/h
22.08.2019 13:46 23,5 C 23,2 C 17,5 C 59 % 71 % 1026,2 hPa 0,0 l/m 0,0 km/h N 360 13,4 C 0,0 km/h
22.08.2019 13:41 23,5 C 23,1 C 17,5 C 59 % 71 % 1026,2 hPa 0,0 l/m 0,0 km/h N 360 13,3 C 0,0 km/h
22.08.2019 13:36 23,5 C 23,1 C 17,5 C 59 % 71 % 1026,4 hPa 0,0 l/m 0,0 km/h N 360 13,3 C 0,0 km/h
22.08.2019 13:31 23,5 C 23,1 C 17,5 C 59 % 71 % 1026,4 hPa 0,0 l/m 0,0 km/h N 360 13,6 C 0,0 km/h
22.08.2019 13:26 23,4 C 22,8 C 17,5 C 59 % 70 % 1026,4 hPa 0,0 l/m 0,0 km/h N 360 13,3 C 0,0 km/h
22.08.2019 13:21 23,4 C 22,9 C 17,5 C 59 % 71 % 1026,4 hPa 0,0 l/m 0,0 km/h N 360 13,4 C 0,0 km/h
22.08.2019 13:16 23,4 C 22,7 C 17,5 C 59 % 70 % 1026,3 hPa 0,0 l/m 0,0 km/h N 360 13,7 C 0,0 km/h
22.08.2019 13:11 23,2 C 22,7 C 17,5 C 59 % 70 % 1026,3 hPa 0,0 l/m 0,0 km/h N 360 13,5 C 0,0 km/h
22.08.2019 13:06 23,2 C 22,7 C 17,5 C 59 % 70 % 1026,3 hPa 0,0 l/m 0,0 km/h N 360 14,0 C 0,0 km/h
22.08.2019 13:01 23,2 C 22,5 C 17,5 C 59 % 70 % 1026,3 hPa 0,0 l/m 0,0 km/h N 360 13,8 C 0,0 km/h
22.08.2019 12:56 23,3 C 22,4 C 17,5 C 59 % 70 % 1026,6 hPa 0,0 l/m 0,0 km/h N 360 14,2 C 0,0 km/h
22.08.2019 12:51 23,2 C 22,3 C 17,5 C 59 % 69 % 1026,6 hPa 0,0 l/m 0,0 km/h N 360 13,9 C 0,0 km/h
22.08.2019 12:46 23,2 C 22,2 C 17,5 C 59 % 69 % 1026,6 hPa 0,0 l/m 0,0 km/h N 360 13,8 C 0,0 km/h
22.08.2019 12:41 23,2 C 22,2 C 17,5 C 59 % 69 % 1026,6 hPa 0,0 l/m 0,0 km/h N 360 13,8 C 0,0 km/h
22.08.2019 12:36 23,2 C 22,1 C 17,5 C 59 % 69 % 1026,8 hPa 0,0 l/m 0,0 km/h N 360 14,0 C 0,0 km/h
22.08.2019 12:31 23,2 C 22,1 C 17,5 C 59 % 69 % 1026,8 hPa 0,0 l/m 0,0 km/h N 360 14,0 C 0,0 km/h
22.08.2019 12:26 23,1 C 22,0 C 17,5 C 59 % 69 % 1026,8 hPa 0,0 l/m 0,0 km/h N 360 13,9 C 0,0 km/h
22.08.2019 12:21 23,1 C 22,0 C 17,5 C 58 % 69 % 1026,8 hPa 0,0 l/m 0,0 km/h N 360 14,1 C 0,0 km/h
22.08.2019 12:16 23,1 C 21,8 C 17,5 C 58 % 69 % 1026,6 hPa 0,0 l/m 0,0 km/h N 360 13,9 C 0,0 km/h
22.08.2019 12:11 23,0 C 21,6 C 17,5 C 58 % 68 % 1026,6 hPa 0,0 l/m 0,0 km/h N 360 14,0 C 0,0 km/h
22.08.2019 12:06 23,0 C 21,7 C 17,5 C 58 % 68 % 1026,6 hPa 0,0 l/m 0,0 km/h N 360 13,8 C 0,0 km/h
22.08.2019 12:01 23,0 C 21,4 C 17,5 C 58 % 68 % 1026,6 hPa 0,0 l/m 0,0 km/h N 360 13,6 C 0,0 km/h
22.08.2019 11:56 23,0 C 21,4 C 17,5 C 58 % 68 % 1026,7 hPa 0,0 l/m 0,0 km/h N 360 13,8 C 0,0 km/h
22.08.2019 11:51 23,0 C 21,3 C 17,5 C 58 % 68 % 1026,7 hPa 0,0 l/m 0,0 km/h N 360 14,0 C 0,0 km/h
22.08.2019 11:46 23,0 C 21,1 C 17,5 C 58 % 67 % 1026,7 hPa 0,0 l/m 0,0 km/h N 360 13,8 C 0,0 km/h
22.08.2019 11:41 22,9 C 21,1 C 17,5 C 58 % 67 % 1026,7 hPa 0,0 l/m 0,0 km/h N 360 14,0 C 0,0 km/h
22.08.2019 11:36 22,9 C 20,9 C 17,5 C 58 % 67 % 1026,4 hPa 0,0 l/m 0,0 km/h N 360 13,8 C 0,0 km/h
22.08.2019 11:31 22,9 C 20,7 C 17,5 C 58 % 67 % 1026,4 hPa 0,0 l/m 0,0 km/h N 360 13,9 C 0,0 km/h
22.08.2019 11:26 22,9 C 20,5 C 17,5 C 57 % 66 % 1026,4 hPa 0,0 l/m 0,0 km/h N 360 13,9 C 0,0 km/h
22.08.2019 11:21 22,8 C 20,4 C 17,5 C 57 % 66 % 1026,4 hPa 0,0 l/m 0,0 km/h N 360 14,3 C 0,0 km/h
22.08.2019 11:16 22,8 C 20,2 C 17,5 C 57 % 66 % 1026,7 hPa 0,0 l/m 0,0 km/h N 360 14,1 C 0,0 km/h
22.08.2019 11:11 22,8 C 20,0 C 17,5 C 57 % 66 % 1026,7 hPa 0,0 l/m 0,0 km/h N 360 14,4 C 0,0 km/h
22.08.2019 11:06 22,8 C 19,9 C 17,5 C 57 % 65 % 1026,7 hPa 0,0 l/m 0,0 km/h N 360 14,3 C 0,0 km/h
22.08.2019 11:01 22,8 C 19,7 C 17,5 C 58 % 65 % 1026,7 hPa 0,0 l/m 0,0 km/h N 360 14,1 C 0,0 km/h
22.08.2019 10:56 22,8 C 19,5 C 17,5 C 58 % 65 % 1026,8 hPa 0,0 l/m 0,0 km/h N 360 14,1 C 0,0 km/h
22.08.2019 10:51 22,8 C 19,5 C 17,5 C 58 % 65 % 1026,8 hPa 0,0 l/m 0,0 km/h N 360 14,1 C 0,0 km/h
22.08.2019 10:46 22,8 C 19,2 C 17,5 C 57 % 64 % 1026,8 hPa 0,0 l/m 0,0 km/h N 360 14,0 C 0,0 km/h
22.08.2019 10:41 22,8 C 19,1 C 17,5 C 57 % 64 % 1026,8 hPa 0,0 l/m 0,0 km/h N 360 13,9 C 0,0 km/h
22.08.2019 10:36 22,8 C 19,0 C 17,5 C 57 % 64 % 1026,9 hPa 0,0 l/m 0,0 km/h N 360 13,8 C 0,0 km/h
22.08.2019 10:31 22,8 C 18,8 C 17,5 C 57 % 63 % 1026,9 hPa 0,0 l/m 0,0 km/h N 360 13,6 C 0,0 km/h
22.08.2019 10:26 22,8 C 18,7 C 17,5 C 57 % 63 % 1026,9 hPa 0,0 l/m 0,0 km/h N 360 13,5 C 0,0 km/h
22.08.2019 10:21 22,8 C 18,7 C 17,5 C 57 % 63 % 1026,9 hPa 0,0 l/m 0,0 km/h N 360 13,5 C 0,0 km/h
22.08.2019 10:16 22,8 C 18,4 C 17,5 C 57 % 63 % 1027,0 hPa 0,0 l/m 0,0 km/h N 360 13,5 C 0,0 km/h
22.08.2019 10:11 22,8 C 18,4 C 17,5 C 57 % 63 % 1027,0 hPa 0,0 l/m 0,0 km/h N 360 13,5 C 0,0 km/h
22.08.2019 10:06 22,8 C 18,3 C 17,5 C 56 % 63 % 1027,0 hPa 0,0 l/m 0,0 km/h N 360 13,6 C 0,0 km/h
22.08.2019 10:01 22,8 C 18,1 C 17,5 C 56 % 62 % 1027,0 hPa 0,0 l/m 0,0 km/h N 360 13,4 C 0,0 km/h
22.08.2019 09:56 22,8 C 17,9 C 17,5 C 56 % 62 % 1027,2 hPa 0,0 l/m 0,0 km/h N 360 13,2 C 0,0 km/h
22.08.2019 09:51 22,8 C 17,9 C 17,5 C 56 % 62 % 1027,2 hPa 0,0 l/m 0,0 km/h N 360 13,2 C 0,0 km/h
22.08.2019 09:46 22,8 C 17,7 C 17,5 C 57 % 62 % 1027,2 hPa 0,0 l/m 0,0 km/h N 360 13,4 C 0,0 km/h
22.08.2019 09:41 22,8 C 17,5 C 17,5 C 56 % 61 % 1027,2 hPa 0,0 l/m 0,0 km/h N 360 13,4 C 0,0 km/h
22.08.2019 09:36 22,8 C 17,2 C 17,3 C 56 % 61 % 1026,9 hPa 0,0 l/m 0,0 km/h N 360 12,9 C 0,0 km/h
22.08.2019 09:31 22,8 C 17,0 C 17,3 C 56 % 60 % 1026,9 hPa 0,0 l/m 0,0 km/h N 360 12,9 C 0,0 km/h
22.08.2019 09:26 22,8 C 16,8 C 17,1 C 56 % 60 % 1026,9 hPa 0,0 l/m 0,0 km/h N 360 12,7 C 0,0 km/h
22.08.2019 09:21 22,8 C 16,7 C 17,1 C 56 % 60 % 1026,9 hPa 0,0 l/m 0,0 km/h N 360 12,6 C 0,0 km/h
22.08.2019 09:16 22,8 C 16,5 C 16,9 C 56 % 59 % 1026,8 hPa 0,0 l/m 0,0 km/h N 360 12,8 C 0,0 km/h
22.08.2019 09:11 22,8 C 16,3 C 16,8 C 56 % 59 % 1026,8 hPa 0,0 l/m 0,0 km/h N 360 12,6 C 0,0 km/h
22.08.2019 09:06 22,8 C 16,0 C 16,5 C 56 % 59 % 1026,8 hPa 0,0 l/m 0,0 km/h N 360 12,5 C 0,0 km/h
22.08.2019 09:01 22,7 C 15,7 C 16,2 C 56 % 58 % 1026,8 hPa 0,0 l/m 0,0 km/h N 360 12,4 C 0,0 km/h
22.08.2019 08:56 22,8 C 15,5 C 16,1 C 56 % 58 % 1026,9 hPa 0,0 l/m 0,0 km/h N 360 12,3 C 0,0 km/h
22.08.2019 08:51 22,8 C 15,3 C 16,0 C 56 % 57 % 1026,9 hPa 0,0 l/m 0,0 km/h N 360 12,1 C 0,0 km/h
22.08.2019 08:46 22,8 C 15,1 C 15,8 C 56 % 57 % 1026,9 hPa 0,0 l/m 0,0 km/h N 360 12,0 C 0,0 km/h
22.08.2019 08:41 22,8 C 14,9 C 15,7 C 56 % 57 % 1026,9 hPa 0,0 l/m 0,0 km/h N 360 12,0 C 0,0 km/h
22.08.2019 08:36 22,8 C 14,5 C 15,5 C 56 % 56 % 1026,9 hPa 0,0 l/m 0,0 km/h N 360 11,6 C 0,0 km/h
22.08.2019 08:31 22,8 C 14,3 C 15,3 C 56 % 56 % 1026,9 hPa 0,0 l/m 0,0 km/h N 360 11,8 C 0,0 km/h
22.08.2019 08:26 22,8 C 13,9 C 15,2 C 56 % 55 % 1026,9 hPa 0,0 l/m 0,0 km/h N 360 11,4 C 0,0 km/h
22.08.2019 08:21 22,8 C 13,8 C 15,0 C 56 % 55 % 1026,9 hPa 0,0 l/m 0,0 km/h N 360 11,3 C 0,0 km/h
22.08.2019 08:16 22,8 C 13,6 C 14,9 C 56 % 54 % 1026,9 hPa 0,0 l/m 0,0 km/h N 360 11,3 C 0,0 km/h
22.08.2019 08:11 22,8 C 13,5 C 14,7 C 56 % 54 % 1026,9 hPa 0,0 l/m 0,0 km/h N 360 11,4 C 0,0 km/h
22.08.2019 08:06 22,8 C 13,2 C 14,5 C 56 % 54 % 1026,9 hPa 0,0 l/m 0,0 km/h N 360 11,1 C 0,0 km/h
22.08.2019 08:01 22,8 C 12,9 C 14,2 C 56 % 53 % 1026,9 hPa 0,0 l/m 0,0 km/h N 360 10,8 C 0,0 km/h
22.08.2019 07:56 22,8 C 12,7 C 13,7 C 56 % 53 % 1026,7 hPa 0,0 l/m 0,0 km/h N 360 10,8 C 0,0 km/h
22.08.2019 07:51 22,8 C 12,5 C 13,7 C 56 % 53 % 1026,7 hPa 0,0 l/m 0,0 km/h N 360 10,6 C 0,0 km/h
22.08.2019 07:46 22,8 C 12,3 C 13,6 C 56 % 52 % 1026,7 hPa 0,0 l/m 0,0 km/h N 360 10,2 C 0,0 km/h
22.08.2019 07:41 22,8 C 12,2 C 13,3 C 56 % 52 % 1026,7 hPa 0,0 l/m 0,0 km/h N 360 10,1 C 0,0 km/h
22.08.2019 07:36 22,8 C 12,0 C 13,0 C 57 % 52 % 1026,6 hPa 0,0 l/m 0,0 km/h N 360 9,9 C 0,0 km/h
22.08.2019 07:31 22,8 C 12,0 C 13,0 C 57 % 52 % 1026,6 hPa 0,0 l/m 0,0 km/h N 360 9,9 C 0,0 km/h
22.08.2019 07:26 22,8 C 11,9 C 13,0 C 57 % 52 % 1026,6 hPa 0,0 l/m 0,0 km/h N 360 9,8 C 0,0 km/h
22.08.2019 07:21 22,8 C 11,9 C 12,9 C 57 % 52 % 1026,6 hPa 0,0 l/m 0,0 km/h N 360 9,8 C 0,0 km/h
22.08.2019 07:16 22,8 C 11,9 C 12,8 C 57 % 52 % 1026,6 hPa 0,0 l/m 0,0 km/h N 360 9,8 C 0,0 km/h
22.08.2019 07:11 22,8 C 11,9 C 12,8 C 57 % 52 % 1026,6 hPa 0,0 l/m 0,0 km/h N 360 9,8 C 0,0 km/h
22.08.2019 07:06 22,8 C 11,8 C 12,8 C 57 % 51 % 1026,6 hPa 0,0 l/m 0,0 km/h N 360 9,7 C 0,0 km/h
22.08.2019 07:01 22,8 C 11,8 C 12,7 C 57 % 51 % 1026,6 hPa 0,0 l/m 0,0 km/h N 360 9,5 C 0,0 km/h
22.08.2019 06:56 22,8 C 11,8 C 12,7 C 57 % 51 % 1026,4 hPa 0,0 l/m 0,0 km/h N 360 9,5 C 0,0 km/h
22.08.2019 06:51 22,8 C 11,9 C 12,7 C 57 % 52 % 1026,4 hPa 0,0 l/m 0,0 km/h N 360 9,6 C 0,0 km/h
22.08.2019 06:46 22,8 C 11,9 C 12,7 C 57 % 52 % 1026,4 hPa 0,0 l/m 0,0 km/h N 360 9,6 C 0,0 km/h
22.08.2019 06:41 22,8 C 11,9 C 12,6 C 57 % 52 % 1026,4 hPa 0,0 l/m 0,0 km/h N 360 9,6 C 0,0 km/h
22.08.2019 06:36 22,8 C 12,0 C 12,6 C 57 % 52 % 1026,4 hPa 0,0 l/m 0,0 km/h N 360 9,7 C 0,0 km/h
22.08.2019 06:31 22,8 C 12,0 C 12,8 C 57 % 52 % 1026,4 hPa 0,0 l/m 0,0 km/h N 360 9,7 C 0,0 km/h
22.08.2019 06:26 22,8 C 12,0 C 12,8 C 57 % 52 % 1026,4 hPa 0,0 l/m 0,0 km/h N 360 9,7 C 0,0 km/h
22.08.2019 06:21 22,8 C 12,0 C 12,7 C 57 % 52 % 1026,4 hPa 0,0 l/m 0,0 km/h N 360 9,7 C 0,0 km/h
22.08.2019 06:16 22,8 C 12,1 C 12,7 C 56 % 52 % 1026,3 hPa 0,0 l/m 0,0 km/h N 360 9,8 C 0,0 km/h
22.08.2019 06:11 22,8 C 12,1 C 12,8 C 56 % 52 % 1026,3 hPa 0,0 l/m 0,0 km/h N 360 9,8 C 0,0 km/h
22.08.2019 06:06 22,8 C 12,3 C 12,8 C 56 % 52 % 1026,3 hPa 0,0 l/m 0,0 km/h N 360 10,0 C 0,0 km/h
22.08.2019 06:01 22,9 C 12,3 C 13,1 C 56 % 52 % 1026,3 hPa 0,0 l/m 0,0 km/h N 360 10,0 C 0,0 km/h
22.08.2019 05:56 22,9 C 12,3 C 13,1 C 57 % 52 % 1026,8 hPa 0,0 l/m 0,0 km/h N 360 10,0 C 0,0 km/h
22.08.2019 05:51 22,9 C 12,2 C 13,1 C 57 % 52 % 1026,8 hPa 0,0 l/m 0,0 km/h N 360 9,9 C 0,0 km/h
22.08.2019 05:46 22,9 C 12,3 C 13,1 C 57 % 52 % 1026,8 hPa 0,0 l/m 0,0 km/h N 360 10,0 C 0,0 km/h
22.08.2019 05:41 23,0 C 12,3 C 13,1 C 57 % 52 % 1026,8 hPa 0,0 l/m 0,0 km/h N 360 10,0 C 0,0 km/h
22.08.2019 05:36 23,0 C 12,4 C 13,2 C 57 % 52 % 1026,8 hPa 0,0 l/m 0,0 km/h N 360 9,9 C 0,0 km/h
22.08.2019 05:31 23,0 C 12,5 C 13,1 C 57 % 53 % 1026,8 hPa 0,0 l/m 0,0 km/h N 360 10,2 C 0,0 km/h
22.08.2019 05:26 23,0 C 12,4 C 13,2 C 57 % 52 % 1026,8 hPa 0,0 l/m 0,0 km/h N 360 9,9 C 0,0 km/h
22.08.2019 05:21 23,0 C 12,5 C 13,3 C 57 % 53 % 1026,8 hPa 0,0 l/m 0,0 km/h N 360 10,0 C 0,0 km/h
22.08.2019 05:16 23,0 C 12,5 C 13,3 C 57 % 53 % 1026,7 hPa 0,0 l/m 0,0 km/h N 360 10,0 C 0,0 km/h
22.08.2019 05:11 23,0 C 12,5 C 13,4 C 57 % 53 % 1026,7 hPa 0,0 l/m 0,0 km/h N 360 10,0 C 0,0 km/h
22.08.2019 05:06 23,0 C 12,7 C 13,9 C 57 % 53 % 1026,7 hPa 0,0 l/m 0,0 km/h N 360 10,2 C 0,0 km/h
22.08.2019 05:01 23,0 C 12,7 C 13,9 C 57 % 53 % 1026,7 hPa 0,0 l/m 0,0 km/h N 360 10,2 C 0,0 km/h
22.08.2019 04:56 23,1 C 12,6 C 13,9 C 57 % 53 % 1026,9 hPa 0,0 l/m 0,0 km/h N 360 10,1 C 0,0 km/h
22.08.2019 04:51 23,1 C 12,7 C 13,9 C 57 % 53 % 1026,9 hPa 0,0 l/m 0,0 km/h N 360 10,2 C 0,0 km/h
22.08.2019 04:46 23,1 C 12,8 C 13,9 C 57 % 53 % 1026,9 hPa 0,0 l/m 0,0 km/h N 360 10,3 C 0,0 km/h
22.08.2019 04:41 23,1 C 12,8 C 13,9 C 57 % 53 % 1026,9 hPa 0,0 l/m 0,0 km/h N 360 10,3 C 0,0 km/h
22.08.2019 04:36 23,1 C 12,8 C 13,9 C 57 % 53 % 1026,6 hPa 0,0 l/m 0,0 km/h N 360 10,3 C 0,0 km/h
22.08.2019 04:31 23,1 C 12,8 C 13,9 C 57 % 53 % 1026,6 hPa 0,0 l/m 0,0 km/h N 360 10,3 C 0,0 km/h
22.08.2019 04:26 23,2 C 12,8 C 13,9 C 57 % 53 % 1026,6 hPa 0,0 l/m 0,0 km/h N 360 10,3 C 0,0 km/h
22.08.2019 04:21 23,2 C 12,9 C 13,9 C 57 % 53 % 1026,6 hPa 0,0 l/m 0,0 km/h N 360 10,3 C 0,0 km/h
22.08.2019 04:16 23,2 C 13,0 C 13,9 C 57 % 53 % 1026,7 hPa 0,0 l/m 0,0 km/h N 360 10,4 C 0,0 km/h
22.08.2019 04:11 23,2 C 13,1 C 13,9 C 57 % 54 % 1026,7 hPa 0,0 l/m 0,0 km/h N 360 10,5 C 0,0 km/h
22.08.2019 04:06 23,2 C 13,1 C 13,9 C 57 % 54 % 1026,7 hPa 0,0 l/m 0,0 km/h N 360 10,5 C 0,0 km/h
22.08.2019 04:01 23,2 C 13,2 C 13,9 C 57 % 54 % 1026,7 hPa 0,0 l/m 0,0 km/h N 360 10,6 C 0,0 km/h
22.08.2019 03:56 23,2 C 13,3 C 14,1 C 57 % 54 % 1026,7 hPa 0,0 l/m 0,0 km/h N 360 10,7 C 0,0 km/h
22.08.2019 03:51 23,2 C 13,2 C 14,1 C 58 % 54 % 1026,7 hPa 0,0 l/m 0,0 km/h N 360 10,6 C 0,0 km/h
22.08.2019 03:46 23,3 C 13,3 C 14,1 C 58 % 54 % 1026,7 hPa 0,0 l/m 0,0 km/h N 360 10,7 C 0,0 km/h
22.08.2019 03:41 23,3 C 13,4 C 14,1 C 58 % 54 % 1026,7 hPa 0,0 l/m 0,0 km/h N 360 10,8 C 0,0 km/h
22.08.2019 03:36 23,3 C 13,5 C 14,2 C 58 % 54 % 1026,9 hPa 0,0 l/m 0,0 km/h N 360 10,8 C 0,0 km/h
22.08.2019 03:31 23,2 C 13,4 C 14,2 C 58 % 54 % 1026,9 hPa 0,0 l/m 0,0 km/h N 360 10,8 C 0,0 km/h
22.08.2019 03:26 23,2 C 13,5 C 14,3 C 58 % 54 % 1026,9 hPa 0,0 l/m 0,0 km/h N 360 10,7 C 0,0 km/h
22.08.2019 03:21 23,2 C 13,6 C 14,3 C 58 % 54 % 1026,9 hPa 0,0 l/m 0,0 km/h N 360 10,8 C 0,0 km/h
22.08.2019 03:16 23,4 C 13,7 C 14,2 C 58 % 55 % 1026,8 hPa 0,0 l/m 0,0 km/h N 360 10,9 C 0,0 km/h
22.08.2019 03:11 23,4 C 13,6 C 14,3 C 58 % 54 % 1026,8 hPa 0,0 l/m 0,0 km/h N 360 10,6 C 0,0 km/h
22.08.2019 03:06 23,4 C 13,6 C 14,3 C 58 % 54 % 1026,8 hPa 0,0 l/m 0,0 km/h N 360 10,6 C 0,0 km/h
22.08.2019 03:01 23,4 C 13,7 C 14,3 C 58 % 55 % 1026,8 hPa 0,0 l/m 0,0 km/h N 360 10,7 C 0,0 km/h
22.08.2019 02:56 23,4 C 13,7 C 14,3 C 58 % 55 % 1027,0 hPa 0,0 l/m 0,0 km/h N 360 10,7 C 0,0 km/h
22.08.2019 02:51 23,4 C 13,8 C 14,3 C 58 % 55 % 1027,0 hPa 0,0 l/m 0,0 km/h N 360 10,8 C 0,0 km/h
22.08.2019 02:46 23,4 C 13,8 C 14,4 C 58 % 55 % 1027,0 hPa 0,0 l/m 0,0 km/h N 360 10,8 C 0,0 km/h
22.08.2019 02:41 23,4 C 13,9 C 14,5 C 58 % 55 % 1027,0 hPa 0,0 l/m 0,0 km/h N 360 10,9 C 0,0 km/h
22.08.2019 02:36 23,5 C 13,9 C 14,5 C 58 % 55 % 1026,9 hPa 0,0 l/m 0,0 km/h N 360 10,7 C 0,0 km/h
22.08.2019 02:31 23,5 C 13,9 C 14,5 C 58 % 55 % 1026,9 hPa 0,0 l/m 0,0 km/h N 360 10,7 C 0,0 km/h
22.08.2019 02:26 23,5 C 14,0 C 14,4 C 58 % 55 % 1026,9 hPa 0,0 l/m 0,0 km/h N 360 10,8 C 0,0 km/h
22.08.2019 02:21 23,5 C 14,0 C 14,6 C 58 % 55 % 1026,9 hPa 0,0 l/m 0,0 km/h N 360 10,8 C 0,0 km/h
22.08.2019 02:16 23,5 C 14,1 C 14,5 C 58 % 55 % 1027,0 hPa 0,0 l/m 0,0 km/h N 360 10,9 C 0,0 km/h
22.08.2019 02:11 23,6 C 14,1 C 14,6 C 58 % 55 % 1027,0 hPa 0,0 l/m 0,0 km/h N 360 10,9 C 0,0 km/h
22.08.2019 02:06 23,6 C 14,3 C 14,7 C 58 % 56 % 1027,0 hPa 0,0 l/m 0,0 km/h N 360 11,1 C 0,0 km/h
22.08.2019 02:01 23,6 C 14,3 C 14,7 C 58 % 56 % 1027,0 hPa 0,0 l/m 0,0 km/h N 360 11,1 C 0,0 km/h
22.08.2019 01:56 23,6 C 14,3 C 14,7 C 58 % 56 % 1027,2 hPa 0,0 l/m 0,0 km/h N 360 11,1 C 0,0 km/h
22.08.2019 01:51 23,6 C 14,5 C 14,8 C 58 % 56 % 1027,2 hPa 0,0 l/m 0,0 km/h N 360 11,3 C 0,0 km/h
22.08.2019 01:46 23,7 C 14,5 C 14,8 C 58 % 56 % 1027,2 hPa 0,0 l/m 0,0 km/h N 360 11,1 C 0,0 km/h
22.08.2019 01:41 23,7 C 14,5 C 14,9 C 58 % 56 % 1027,2 hPa 0,0 l/m 0,0 km/h N 360 11,1 C 0,0 km/h
22.08.2019 01:36 23,7 C 14,7 C 14,8 C 58 % 56 % 1027,4 hPa 0,0 l/m 0,0 km/h N 360 11,3 C 0,0 km/h
22.08.2019 01:31 23,7 C 14,7 C 14,8 C 58 % 56 % 1027,4 hPa 0,0 l/m 0,0 km/h N 360 11,3 C 0,0 km/h
22.08.2019 01:26 23,8 C 14,7 C 15,0 C 58 % 56 % 1027,4 hPa 0,0 l/m 0,0 km/h N 360 11,3 C 0,0 km/h
22.08.2019 01:21 23,8 C 14,8 C 15,2 C 58 % 57 % 1027,4 hPa 0,0 l/m 0,0 km/h N 360 11,4 C 0,0 km/h
22.08.2019 01:16 23,8 C 14,9 C 15,2 C 58 % 57 % 1027,9 hPa 0,0 l/m 0,0 km/h N 360 11,3 C 0,0 km/h
22.08.2019 01:11 23,9 C 14,9 C 15,2 C 58 % 57 % 1027,9 hPa 0,0 l/m 0,0 km/h N 360 11,3 C 0,0 km/h
22.08.2019 01:06 23,9 C 15,1 C 15,3 C 58 % 57 % 1027,9 hPa 0,0 l/m 0,0 km/h N 360 11,5 C 0,0 km/h
22.08.2019 01:01 24,0 C 15,1 C 15,3 C 58 % 57 % 1027,9 hPa 0,0 l/m 0,0 km/h N 360 11,3 C 0,0 km/h
22.08.2019 00:56 24,0 C 15,3 C 15,3 C 58 % 57 % 1027,9 hPa 0,0 l/m 0,0 km/h N 360 11,3 C 0,0 km/h
22.08.2019 00:51 24,1 C 15,3 C 15,3 C 58 % 57 % 1027,9 hPa 0,0 l/m 0,0 km/h N 360 11,3 C 0,0 km/h
22.08.2019 00:46 24,2 C 15,3 C 15,4 C 58 % 57 % 1027,9 hPa 0,0 l/m 0,0 km/h N 360 11,1 C 0,0 km/h
22.08.2019 00:41 24,2 C 15,3 C 15,4 C 58 % 57 % 1027,9 hPa 0,0 l/m 0,0 km/h N 360 11,1 C 0,0 km/h
22.08.2019 00:36 24,3 C 15,6 C 15,7 C 58 % 58 % 1027,9 hPa 0,0 l/m 0,0 km/h N 360 11,4 C 0,0 km/h
22.08.2019 00:31 24,2 C 15,6 C 15,7 C 58 % 58 % 1027,9 hPa 0,0 l/m 0,0 km/h N 360 11,4 C 0,0 km/h
22.08.2019 00:26 24,4 C 15,9 C 15,7 C 59 % 58 % 1027,9 hPa 0,0 l/m 0,0 km/h N 360 11,7 C 0,0 km/h
22.08.2019 00:21 24,5 C 15,9 C 15,7 C 59 % 58 % 1027,9 hPa 0,0 l/m 0,0 km/h N 360 11,7 C 0,0 km/h
22.08.2019 00:16 24,6 C 16,0 C 0,0 C 59 % 59 % 1028,0 hPa 0,0 l/m 0,0 km/h N 360 11,6 C 0,0 km/h
22.08.2019 00:11 24,7 C 16,1 C 0,0 C 59 % 59 % 1028,0 hPa 0,0 l/m 0,0 km/h N 360 11,5 C 0,0 km/h
22.08.2019 00:06 24,8 C 16,2 C 0,0 C 60 % 59 % 1028,0 hPa 0,0 l/m 0,0 km/h N 360 11,6 C 0,0 km/h
22.08.2019 00:01 24,8 C 16,3 C 0,0 C 61 % 59 % 1028,0 hPa 0,0 l/m 0,0 km/h N 360 11,7 C 0,0 km/h
_ Min-Zeit 09:01 06:56 00:01 06:01 - 19:05 - 00:01 - - 06:56 00:01
Minimum _ 22,7 C 11,8 C 0,0 C 56 % - 1025,7 hPa - 0,0 km/h - - 9,5 C 0,0 km/h
_ Max-Zeit 22:55 18:10 18:15 00:01 18:10 00:01 00:01 00:01 - - 11:11 00:01
Maximum _ 25,2 C 25,6 C 22,9 C 61 % 75 % 1028,0 hPa 0,0 l/m 0,0 km/h
N
- - 14,4 C 0,0 km/h
N
Durchschnitt _ 23,7 C 19,0 C 17,1 C 58 % #6:54 h 1026,6 hPa #0,0 l/m 0,0 km/h N - 12,4 C 0,0 km/h